Regional Weather Roundup
Issued by NWS Northern Indiana

Home | Current Version | Previous Version | Text Only | Print | Product List | Glossary On
Versions: 1 2 3 4 5 6 7 8 9 10 11 12 13 14 15 16 17 18 19 20 21 22 23 24 25 26 27 28 29 30 31 32 33 34 35 36 37 38 39 40 41 42 43 44 45 46 47 48 49 50
000
ASUS43 KIWX 131810
RWRIWX

KIWX WEATHER ROUNDUP
NATIONAL WEATHER SERVICE NORTHERN INDIANA
200 PM EDT SUN JUL 13 2014

NOTE: "FAIR" INDICATES FEW OR NO CLOUDS BELOW 12,000 FEET WITH NO
SIGNIFICANT WEATHER AND/OR OBSTRUCTIONS TO VISIBILITY.

* THESE STATIONS ARE NOT UNDER NWS QUALITY CONTROL. THEY ALSO MAY NOT
  REPORT WEATHER SUCH AS PRECIPITATION OR FOG.

INZ001>027-131900-
NORTHERN INDIANA

CITY           SKY/WX    TMP DP  RH WIND       PRES   REMARKS
VALPARAISO     PTSUNNY   79  66  64 W6        29.95S
6HR MIN TEMP:  71; 6HR MAX TEMP:  80;

MICHIGAN CITY* MOSUNNY   77  63  61 NW9       29.95R
LAPORTE*       PTSUNNY   77  65  66 NW5       29.95F
6HR MIN TEMP:  70; 6HR MAX TEMP:  77;

KNOX*          CLOUDY    76  66  70 NW7       29.94F
6HR MIN TEMP:  49; 6HR MAX TEMP:  86;

SOUTH BEND     MOSUNNY   78  65  63 W3        29.94F
6HR MIN TEMP:  70; 6HR MAX TEMP:  79;

GOSHEN         PTSUNNY   78  66  66 W12       29.94S
6HR MIN TEMP:  73; 6HR MAX TEMP:  78;

MONTICELLO*    PTSUNNY   78  69  75 W3        29.95S
6HR MIN TEMP:  72; 6HR MAX TEMP:  79;

LOGANSPORT*    PTSUNNY   79  64  61 CALM      29.96S
ROCHESTER*     PTSUNNY   82  66  57 NW8       29.95R
WARSAW*        PTSUNNY   79  68  69 NW9       29.94S
ANGOLA*        SUNNY     79  66  65 NW7       29.93S
FORT WAYNE     PTSUNNY   82  67  60 W8        29.93F
6HR MIN TEMP:  74; 6HR MAX TEMP:  83;

HUNTINGTON*    PTSUNNY   79  69  71 W5        29.94R
6HR MIN TEMP:  71; 6HR MAX TEMP:  81;

PERU/GRISSOM   MOSUNNY   80  71  74 W8        29.95S
6HR MIN TEMP:  72; 6HR MAX TEMP:  81;

MARION*        CLOUDY    79  69  70 W9        29.96S
6HR MIN TEMP:  32; 6HR MAX TEMP:  89;


$$
INZ028>050-131900-
CENTRAL INDIANA

CITY           SKY/WX    TMP DP  RH WIND       PRES   REMARKS
LAFAYETTE      PTSUNNY   79  69  71 W6        29.95S
6HR MIN TEMP:  71; 6HR MAX TEMP:  80;

KOKOMO*        PTSUNNY   81  70  69 W9        29.95S
6HR MIN TEMP:  72; 6HR MAX TEMP:  81;

MUNCIE*        CLOUDY    81  70  69 SW13      29.97R
6HR MIN TEMP:  74; 6HR MAX TEMP:  82; 6HR PCP: TRACE;

INDIANAPOLIS   CLOUDY    80  70  71 W10       29.97S
6HR MIN TEMP:  74; 6HR MAX TEMP:  81;


$$
MIZ043>046-050>051-056>058-064>065-071>073-077>080-131900-
SOUTHWEST LOWER MICHIGAN

CITY           SKY/WX    TMP DP  RH WIND       PRES   REMARKS
BATTLE CREEK   SUNNY     79  64  60 W14       29.92S
6HR MIN TEMP:  70; 6HR MAX TEMP:  79;

BENTON HARBOR  MOSUNNY   73  66  78 W12       29.94S
6HR MIN TEMP:  66; 6HR MAX TEMP:  73;

COLDWATER*     PTSUNNY   77  67  69 W12       29.93S
6HR MIN TEMP:  71; 6HR MAX TEMP:  78;

HILLSDALE*     PTSUNNY   76  65  69 CALM      29.93S
HOLLAND        MOSUNNY   74  66  76 W10       29.94S
6HR MIN TEMP:  67; 6HR MAX TEMP:  75;

GRAND RAPIDS   PTSUNNY   76  64  66 W13       29.91S
6HR MIN TEMP:  67; 6HR MAX TEMP:  77;

KALAMAZOO      MOSUNNY   80  63  55 NW12G23   29.92S
6HR MIN TEMP:  69; 6HR MAX TEMP:  80;

STURGIS*       PTSUNNY   75  66  73 W6        29.93F
THREE RIVERS*  FAIR      79  68  69 W9        29.93S
6HR MIN TEMP:  70; 6HR MAX TEMP:  79;


$$
OHZ001>008-015>018-024>025-131900-
NORTHWEST OHIO

CITY           SKY/WX    TMP DP  RH WIND       PRES   REMARKS
WAUSEON*       FAIR      81  66  61 W9G15     29.91S
DEFIANCE       PTSUNNY   82  67  60 VRB7      29.92R
6HR MIN TEMP:  76; 6HR MAX TEMP:  82;

FINDLAY        PTSUNNY   83  70  64 W16       29.91S
6HR MIN TEMP:  77; 6HR MAX TEMP:  84; 6HR PCP: TRACE;

TOLEDO EXPRESS MOSUNNY   83  64  52 W13G18    29.90S
6HR MIN TEMP:  74; 6HR MAX TEMP:  84; 6HR PCP: TRACE;

TOLEDO METCALF MOSUNNY   84  65  52 W13       29.90S
6HR MIN TEMP:  76; 6HR MAX TEMP:  84; 6HR PCP:  0.03;

LIMA           PTSUNNY   82  70  66 W21       29.93F
6HR MIN TEMP:  77; 6HR MAX TEMP:  83;


$$
&&



USA.gov is the U.S. government's official web portal to all federal, state and local government web resources and services.